Location: Hillsboro
(38.3483°N, 97.1938°W)
Time: 19:51:17
(UTC-05:00)

Daily predictions for brighter satellites

Satellite Brightness Start Highest point End
(mag) Time Altitude Azimuth Time Altitude Azimuth Time Altitude Azimuth
Cosmos 2074 Rocket 4.1 20:28:29 10° S 20:34:48 88° W 20:41:07 10° N
FREGAT/IRIS 2.9 20:34:32 10° S 20:37:28 69° WSW 20:40:25 10° NNW
Cosmos 2333 Rocket 2.6 20:33:08 10° S 20:38:26 43° ESE 20:43:44 10° NE
ERS-2 2.7 20:36:39 10° SE 20:40:05 39° ENE 20:43:32 10° N
Cosmos 1455 3.2 20:37:50 10° SSE 20:41:03 26° E 20:44:18 10° NNE
CZ-2D R/B 3.3 20:37:24 10° SSE 20:41:08 60° ENE 20:44:55 10° N
Cosmos 1610 Rocket 4.5 20:35:47 10° S 20:41:51 70° E 20:47:58 10° NNE
Sich 1 3.3 20:38:23 10° N 20:42:30 45° E 20:46:35 10° SSE
USA 186 2.5 20:41:01 10° ESE 20:42:42 19° ENE 20:44:26 10° NNE
Cosmos 1844 Rocket 2.8 20:37:48 10° NNW 20:43:28 64° ENE 20:49:03 10° SSE
COSMOS 2428 2.7 20:37:47 10° SSW 20:43:30 83° ESE 20:49:16 10° NNE
Cosmos 2333 4.2 20:39:26 10° SSW 20:45:06 89° ESE 20:50:46 10° NNE
Cosmos 1809 Rocket 4.5 20:40:10 10° S 20:46:15 67° E 20:52:23 10° NNE
Cosmos 1892 3.1 20:46:31 10° N 20:50:14 42° E 20:53:55 10° SSE
Cosmos 1844 3.9 20:44:41 10° NNW 20:50:18 56° ENE 20:55:56 10° SE
Envisat 3.0 20:45:34 10° SSE 20:50:38 78° ENE 20:55:44 10° N
Cosmos 2251 Rocket 3.6 20:46:15 10° NNW 20:51:38 70° ENE 20:56:57 10° SSE
YAOGAN 6 3.2 20:49:25 10° SE 20:52:45 38° ENE 20:56:10 10° N
Cosmos 2219 Rocket 2.2 20:47:16 10° S 20:52:52 68° ESE 20:58:29 10° NNE
Meteor 2-2 Rocket 4.3 20:48:24 10° S 20:54:10 66° E 21:00:04 10° NNE
Cosmos 2237 Rocket 2.8 20:50:07 10° SSE 20:55:03 33° ESE 21:00:01 10° NE
Genesis I 4.3 20:58:37 10° NNW 21:02:17 32° NE 21:05:02 15° ESE
Meteor 2-14 Rocket 4.4 20:56:36 10° S 21:02:37 68° E 21:08:42 10° NNE
Cosmos 1633 Rocket 3.1 21:00:16 10° N 21:04:34 60° E 21:08:52 10° SSE
Cosmos 2278 Rocket 3.1 21:00:51 10° N 21:05:56 33° ENE 21:09:51 15° ESE
Nadezhda 3 Rocket 4.0 21:00:47 10° N 21:07:07 77° E 21:13:28 10° S
Meteor 2-15 Rocket 4.4 21:04:24 10° N 21:10:35 81° E 21:16:42 10° S
Meteor 2-16 Rocket 4.4 21:06:39 10° S 21:12:42 67° E 21:18:47 10° NNE
Cosmos 1340 3.8 21:09:34 10° SSW 21:13:13 46° WNW 21:16:54 10° N
Cosmos 1515 Rocket 4.0 21:10:00 10° SSE 21:14:11 43° E 21:18:25 10° NNE
Cosmos 2228 Rocket 3.3 21:15:03 10° SSE 21:19:15 48° E 21:23:30 10° NNE
Sakura Rocket 4.3 21:15:54 10° SW 21:19:35 22° S 21:21:08 18° SSE
Thor Agena Rocket 3.9 21:17:52 10° N 21:23:05 70° WNW 21:28:19 10° SSW
SL-24 R/B - RUBIN 2 4.3 21:20:45 10° NW 21:24:56 49° WSW 21:28:55 12° S
ASTRO E2 4.3 21:23:13 10° SSW 21:25:57 18° SSE 21:26:03 18° SSE
Cosmos 1825 2.9 21:25:18 10° NNE 21:28:46 34° ENE 21:29:47 29° ESE
OAO 2 Rocket 4.0 21:26:11 10° W 21:31:04 41° SSW 21:33:39 24° SE
Cosmos 1328 Rocket 3.7 21:28:30 10° S 21:32:53 76° W 21:37:21 10° N
Spot 2 Rocket 3.4 21:29:14 15° SSE 21:33:29 75° ENE 21:38:34 10° N
ATLAS 2AS CENTAUR R/B 2.9 21:26:41 10° NNW 21:34:36 80° ENE 21:39:43 22° SE
ATLAS CENTAUR R/B 2.1 21:31:18 10° SW 21:34:50 48° NW 21:38:32 10° NNE
SL-8 R/B 3.8 21:32:35 10° WSW 21:37:22 78° NNW 21:42:12 10° NE
Resurs 01 Rocket 2.1 21:39:35 11° S 21:43:46 61° WSW 21:48:10 10° NNW
GEOS 3 Rocket 4.4 21:39:14 10° ENE 21:43:44 29° ESE 21:43:44 29° ESE
SL-16 R/B 2.7 21:43:10 26° SE 21:45:14 34° ESE 21:50:17 10° NE
Cosmos 1470 Rocket 3.5 21:43:21 10° N 21:47:46 85° W 21:50:30 23° S
Cosmos 2344 4.1 21:42:15 10° S 21:48:48 31° ESE 21:55:29 10° NE
ARGOS 3.6 21:48:16 32° ESE 21:50:08 43° ENE 21:55:11 10° N
CZ-4B DEB 4.4 21:49:49 55° SE 21:50:20 65° ENE 21:53:49 10° N
Cosmos 1939 Rocket 4.3 21:49:13 10° SSW 21:52:46 35° W 21:56:22 10° NNW
Cosmos 1959 Rocket 4.4 21:46:38 10° S 21:52:46 74° E 21:58:52 10° N
Cosmos 1727 Rocket 4.2 21:50:05 10° N 21:56:03 48° E 21:58:14 35° SE
Cosmos 1869 3.2 21:55:17 37° S 21:56:49 77° E 22:00:50 10° N
Meteor 2-3 Rocket 4.4 21:51:24 10° NNW 21:56:51 54° W 22:02:20 10° S
SL-08 RB Rocket 4.4 21:56:34 34° E 21:56:54 35° ENE 22:00:58 10° N
NOSS 3-4 (A) 4.3 21:58:10 10° NNW 22:04:55 46° NE 22:07:53 32° E
NOSS 3-4 (C) 4.4 21:58:16 10° NNW 22:05:01 45° NE 22:07:59 31° E
Meteor 2-10 Rocket 3.7 22:01:53 25° S 22:05:20 70° E 22:11:07 10° NNE
Cosmos 2218 Rocket 4.1 22:03:55 10° S 22:10:16 80° W 22:16:42 10° N
ERS-1 Rocket 3.3 22:10:08 44° E 22:10:40 46° ENE 22:15:28 10° N
Cosmos 1408 3.3 22:08:10 10° NNW 22:11:45 50° W 22:12:36 40° SW
USA 81 4.1 22:07:10 10° N 22:12:21 55° E 22:13:03 51° ESE
SL-08 R/B 4.4 22:08:43 18° S 22:13:40 87° E 22:20:07 10° N
Cosmos 407 Rocket 3.6 22:08:57 10° N 22:13:58 52° ENE 22:14:31 50° E
Cosmos 1933 Rocket 4.4 22:12:06 10° NNW 22:16:19 47° W 22:18:15 28° SSW
USA 267 3.4 22:10:09 10° ENE 22:16:23 46° SE 22:22:36 10° SSW
H-2A R/B 2.0 22:17:10 55° ESE 22:17:46 60° ENE 22:22:40 10° N
Cosmos 2297 4.0 22:13:01 10° NNW 22:18:32 49° ENE 22:19:22 46° E
Cosmos 2366 rocket 4.2 22:15:37 11° SSW 22:21:41 72° W 22:27:58 10° N
Cosmos 1371 Rocket 4.4 22:16:35 10° SSW 22:21:50 63° WNW 22:27:09 10° NNE
Cosmos 2333 Rocket 4.4 22:18:08 10° WSW 22:22:49 26° WNW 22:27:32 10° N
Cosmos 2369 Rocket 4.3 22:22:13 10° NNE 22:24:34 12° NE 22:25:18 12° ENE
MetOp-A 4.2 22:32:42 53° S 22:33:54 74° WSW 22:39:17 10° NNW
Cosmos 676 Rocket 4.4 22:29:05 10° N 22:33:55 49° ENE 22:33:55 49° ENE
Cosmos 1869 Rocket 3.9 22:34:27 10° N 22:38:04 60° N 22:38:04 60° N
Cosmos 2237 Rocket 3.9 22:34:02 10° WSW 22:39:02 32° WNW 22:44:04 10° N
CZ-4C R/B 4.1 22:44:41 16° NE 22:44:41 16° NE 22:45:52 10° NE
Cosmos 2056 Rocket 4.3 22:38:04 10° SW 22:43:21 51° WNW 22:48:37 10° N
Helios 1A 3.9 22:45:20 44° N 22:45:20 44° N 22:48:19 10° N
Cosmos 1452 Rocket 4.3 22:45:54 40° NE 22:45:54 40° NE 22:49:23 10° NNE
Cosmos 1862 4.3 22:42:35 10° N 22:45:28 44° NNW 22:45:28 44° NNW
Terra 3.4 22:48:17 25° NE 22:48:17 25° NE 22:50:58 10° N
Cosmos 405 Rocket 4.3 22:50:13 33° NNW 22:50:13 33° NNW 22:52:34 10° N
Cosmos 2278 Rocket 3.5 22:44:56 10° NW 22:49:56 33° WSW 22:51:44 27° SW
ATLAS 5 CENTAUR R/B 4.2 22:48:55 10° N 22:52:57 18° NE 22:54:09 18° NE
SPOT 5 3.6 23:07:48 46° NNW 23:07:48 46° NNW 23:10:57 10° NNW
Cosmos 1140 Rocket 3.9 23:03:02 10° NNW 23:07:08 57° N 23:07:08 57° N
Lacrosse 5 3.9 23:05:46 10° NNW 23:09:23 19° NNE 23:09:43 19° NE
Cosmos 1934 Rocket 4.2 23:17:32 58° NNE 23:17:32 58° NNE 23:22:24 10° N
SL-16 R/B 3.8 23:24:47 12° WSW 23:29:18 31° WNW 23:34:20 10° N
Cosmos 1943 Rocket 3.7 23:32:50 10° N 23:36:08 27° NNE 23:36:08 27° NNE
